Regional Weather Roundup
Issued by NWS

Home | Current Version | Previous Version | Graphics & Text | Print | Product List | Glossary On
Versions: 1 2 3 4 5 6 7 8 9 10 11 12 13 14 15 16 17 18 19 20 21 22 23 24 25 26 27 28 29 30 31 32 33 34 35 36 37 38 39 40 41 42 43 44 45 46 47 48 49 50
000
ASUS43 KDMX 271703
RWRIA

WEATHER ROUNDUP FOR IOWA
NATIONAL WEATHER SERVICE DES MOINES IA
1200 PM CDT SAT AUG 27 2016

NOTE: "FAIR" INDICATES FEW OR NO CLOUDS BELOW 12,000 FEET WITH NO
SIGNIFICANT WEATHER AND/OR OBSTRUCTIONS TO VISIBILITY.

* - THESE STATIONS ARE NOT NWS STATIONS...THUS NOT UNDER NWS
QUALITY CONTROL.  THEY ALSO DO NOT REPORT WEATHER SUCH
AS PRECIPITATION OR FOG.

IAZ001>003-012>014-020>022-031>034-043>046-271800-
   NORTHWEST IOWA

CITY           SKY/WX    TMP DP  RH WIND       PRES   REMARKS
CARROLL *      CLOUDY    72  66  83 S6        30.02F
CHEROKEE *     CLOUDY    68  66  93 W3        30.02S
DENISON *      CLOUDY    72  66  83 VRB5      30.01S
LE MARS *      CLOUDY    68  63  83 VRB3      30.03R
ORANGE CITY *  CLOUDY    68  64  88 SW5       30.03R
SHELDON *      CLOUDY    66  64  94 SW5       30.01S
SIOUX CITY     CLOUDY    72  64  76 S5        30.01F
SPENCER        CLOUDY    65  62  90 S6        30.03S
STORM LAKE *   PTSUNNY   66  64  94 S6        30.04R
$$

IAZ055>058-069>071-079>083-090>094-271800-
   SOUTHWEST IOWA

CITY           SKY/WX    TMP DP  RH WIND       PRES   REMARKS
ATLANTIC *     CLOUDY    72  66  83 SW3       30.03S
AUDUBON *      CLOUDY    70  66  88 CALM      30.04F
CLARINDA *       N/A     75  68  78 MISG      30.05F
COUNCIL BLFS * PTSUNNY   75  68  78 VRB3      30.02F
CRESTON *      CLOUDY    73  68  83 W3        30.05F
HARLAN  *      CLOUDY    70  68  94 S6        30.06F FOG
LAMONI         CLOUDY    75  70  84 S7        30.03S
RED OAK *      CLOUDY    73  68  83 CALM      30.03F
SHENANDOAH *   CLOUDY    73 -35   1 CALM      30.04S
$$

IAZ047>049-059>061-072>074-084-271800-
   CENTRAL IOWA

CITY           SKY/WX    TMP DP  RH WIND       PRES   REMARKS
AMES           CLOUDY    70  68  93 S5        30.02F
ANKENY *         N/A    N/A N/A N/A MISG        N/A
BOONE *        PTSUNNY   70  64  83 CALM      30.02F
CHARITON *       N/A     75  70  83 MISG      30.03S
DES MOINES     PTSUNNY   71  66  84 SW3       30.02F
GRINNELL*      CLOUDY    69  65  88 SW6       30.04S
KNOXVILLE *    CLOUDY    72  66  83 N5        30.01F
MARSHALLTOWN   CLOUDY    69  67  93 SW5       30.02F
NEWTON *       CLOUDY    68  68 100 SW5       30.02F
PERRY *        CLOUDY    72  69  90 W3        30.03F
$$

IAZ004>006-015-016-023>025-035-036-271800-
   NORTH CENTRAL IOWA

CITY           SKY/WX    TMP DP  RH WIND       PRES   REMARKS
ALGONA *       MOSUNNY   66  63  88 S6        30.02F
ESTHERVILLE    CLOUDY    66  65  96 W5        30.01F
FORT DODGE *   CLOUDY    70  64  83 SW5       30.03F
MASON CITY     CLOUDY    66  64  93 S7        30.04S
FOREST CITY *    N/A    N/A N/A N/A MISG        N/A
WEBSTER CITY * CLOUDY    70  66  88 VRB5      30.01F
IOWA FALLS *   CLOUDY    69  65  87 SW5       30.04S
$$

IAZ007>011-017>019-026>030-037>042-050>054-066-271800-
   NORTHEAST IOWA

CITY           SKY/WX    TMP DP  RH WIND       PRES   REMARKS
CEDAR RAPIDS   CLOUDY    73  69  87 W8        30.01F
CHARLES CITY * CLOUDY    66  66 100 S6        30.03S
CLINTON *      MOSUNNY   78  71  79 SW14      30.02S HX  80
DECORAH *      CLOUDY    66  64  94 SE5       30.02F
DUBUQUE        FOG       68  67  96 CALM      30.03S VSB 1/2
MONTICELLO *   CLOUDY    72  70  94 NW5G12    30.01S
OELWEIN *      CLOUDY    70  66  88 VRB5      30.03F
WATERLOO       CLOUDY    69  65  86 SW8       30.01F
$$

IAZ064-065-067-068-078-271800-
   EAST CENTRAL IOWA

CITY           SKY/WX    TMP DP  RH WIND       PRES   REMARKS
DAVENPORT      PTSUNNY   78  69  73 W9        30.02S HX  80
IOWA CITY      CLOUDY    74  67  78 W9        30.04R
MT. PLEASANT * SUNNY     81  71  72 SW10      30.03S HX  85
MUSCATINE *    PTSUNNY   79  70  73 SW13      30.02S HX  81
QUAD CITIES    MOSUNNY   80  70  71 W9        30.01F HX  83
$$

IAZ062-063-075>077-085>089-095>099-271800-
   SOUTHEAST IOWA

CITY           SKY/WX    TMP DP  RH WIND       PRES   REMARKS
BURLINGTON     SUNNY     80  71  74 SW8       30.02F HX  84
FAIRFIELD *    PTSUNNY   75  68  78 VRB7G13   30.03S
FORT MADISON * SUNNY     81  72  74 SW6       30.04F HX  84
KEOKUK *       MOSUNNY   82  72  69 SW7G14    30.02F HX  87
OSKALOOSA *    CLOUDY    74  69  85 SW6       30.04F
CENTERVILLE *    N/A     77  70  78 CALM      30.04F
OTTUMWA        PTSUNNY   76  68  76 W5        30.02F
WASHINGTON *   PTSUNNY   77  70  78 SW12      30.04S
$$

ABBREVIATIONS USED IN REMARKS
   TC - TEMPERATURES IN CELSIUS
  WCI - WIND CHILL INDEX
   HX - HEAT INDEX
  VSB - VISIBILITY
$$




USA.gov is the U.S. government's official web portal to all federal, state and local government web resources and services.